Regional Weather Roundup
Issued by NWS

Home | Current Version | Previous Version | Text Only | Print | Product List | Glossary Off
Versions: 1 2 3 4 5 6 7 8 9 10 11 12 13 14 15 16 17 18 19 20 21 22 23 24 25 26 27 28 29 30 31 32 33 34 35 36 37 38 39 40 41 42 43 44 45 46 47 48 49 50

000
ASUS43 KTOP 311959
RWRKS

WEATHER ROUNDUP FOR KANSAS
NATIONAL WEATHER SERVICE GOODLAND KS
300 PM CDT WED AUG 31 2016

NOTE:  "FAIR" INDICATES FEW OR NO CLOUDS BELOW 12,000 FEET WITH NO
SIGNIFICANT WEATHER AND/OR OBSTRUCTIONS TO VISIBILITY.

KSZ001>006-013>018-027>032-041>047-312100-
NORTHWEST KANSAS

CITY           SKY/WX    TMP DP  RH WIND       PRES   REMARKS
GOODLAND       PTSUNNY   68  61  78 SE5       30.23S
HAYS           PTSUNNY   73  64  73 E15       30.17F
HILL CITY      LGT RAIN  73  68  84 E8        30.19S
RUSSELL        LGT RAIN  73  67  81 NE13      30.15F
$$

KSZ061>065-074>080-084>089-312100-
SOUTHWEST KANSAS

CITY           SKY/WX    TMP DP  RH WIND       PRES   REMARKS
DODGE CITY     CLOUDY    74  66  76 NW3       30.17F
ELKHART          N/A     78  63  60 S3          N/A
GARDEN CITY    CLOUDY    73  64  73 E7        30.18F
GREAT BEND     CLOUDY    79  63  57 NE9       30.13F
LIBERAL        CLOUDY    79  64  61 W5        30.18F
$$

KSZ066>073-081>083-090>101-312100-
SOUTHEAST KANSAS

CITY           SKY/WX    TMP DP  RH WIND       PRES   REMARKS
CHANUTE        CLOUDY    83  71  67 NE7       30.07S
COFFEYVILLE    CLOUDY    78  72  81 W7        30.06R
HUTCHINSON     MOSUNNY   79  68  69 E9        30.11F
MEDICINE LODGE   N/A     81  67  62 N7        30.09F
NEWTON         MOSUNNY   76  70  82 E6        30.12F
PARSONS        CLOUDY    80  71  74 N7        30.08S
WICHITA INTL   MOSUNNY   83  68  60 N10       30.09F
WICHITA JABRA  MOSUNNY   79  71  76 NE8       30.10S
WINFIELD       CLOUDY    79  72  79 E8        30.09S
$$

KSZ007>012-019>026-033>040-048>060-102>105-312100-
NORTHEAST KANSAS

CITY           SKY/WX    TMP DP  RH WIND       PRES   REMARKS
CONCORDIA      PTSUNNY   73  69  87 N6        30.16F
EMPORIA        LGT RAIN  75  71  87 NE7       30.10F
LAWRENCE       PTSUNNY   79  72  79 N10       30.09F
MANHATTAN      CLOUDY    78  71  79 NE10      30.12F
OLATHE IND     CLOUDY    77  72  84 N10       30.10F
OLATHE EXE     CLOUDY    77  69  76 N9        30.09F
SALINA         PTSUNNY   81  70  69 VRB6      30.13F
TOPEKA BILLARD CLOUDY    79  71  76 NE7       30.10F
TOPEKA FORBES  CLOUDY    79  72  79 N8        30.11F
$$



USA.gov is the U.S. government's official web portal to all federal, state and local government web resources and services.